Volver al catálogo

SL-14 R/B

ActivoLEO
NORAD 20197·ROCKET BODY·🇷🇺 Russia

Lanzado Aug 28, 1989 desde Plesetsk Cosmodrome

Loading…

Próximos Pases (próximas 24 horas)

TLE

ActualizadoSource: Space-Track

Época: Sep 14, 2026, 04:00 UTC

1 20197U 89068B   26257.16731163  .00000000  00000-0  12817-3 0  9992
2 20197  73.5667 173.9020 0023532  62.0788  98.7930 12.40774276677087

Sigue SL-14 R/B en tiempo real con AllMySat

Download on the App Store